[[{"header":{"parameterUnit":"m.s-1","parameterCategory":1,"la1":30.2991,"la2":30.254,"lo1":-89.0895,"lo2":-89.0444,"dy":0.0017,"dx":0.0017,"nx":28,"ny":28,"refTime":"2024-04-01T21:00:00:Z","depth":0,"parameterNumber":2,"parameterNumberName":"U-component_of_WINDS"},"data":[0,0,0,0,0,0,0,0,0,0,0,0,0,0,0,0,0,0,0,0,0,0,0,0,0,0,0,0,0,0,0,0,0,0,0,0,0,0,0,0,0,0,0,0,0,0,0,0,0,0,0,0,0,0,0,0,0,0,5.637,5.637,0,5.6442,5.6442,5.6443,5.6379,5.6377,5.6374,5.6372,5.6445,5.6449,5.6453,0,0,0,0,0,0,0,0,0,0,0,0,0,5.6177,5.6181,5.6369,5.637,5.6371,5.6441,5.6442,5.6443,5.638,5.6377,5.6374,5.6371,5.6443,5.6448,5.6454,0,0,0,0,0,0,0,0,0,0,0,0,0,5.6256,5.6182,5.6369,5.6348,5.6347,5.6441,5.6443,5.6444,5.6381,5.6377,5.6373,5.6369,5.6442,5.6448,5.6454,5.6573,0,0,5.6474,5.6477,0,0,0,0,0,0,0,0,5.6252,5.6263,5.635,5.635,5.6348,5.6398,5.6401,5.6487,5.6382,5.6368,5.6372,5.6367,5.6432,5.6439,5.6461,5.6577,5.658,5.6475,5.6479,5.6482,5.6484,0,0,0,0,0,0,0,5.6246,5.626,5.6398,5.6352,5.6351,5.6335,5.6342,5.6417,5.6421,5.6369,5.6364,5.6374,5.6431,5.6455,5.6463,5.6581,5.6475,5.6481,5.6485,5.6487,5.68,5.6804,0,0,0,0,0,0,5.6243,5.6256,5.6396,5.64,5.629,5.6342,5.6349,5.6386,5.642,5.6421,5.6377,5.637,5.6446,5.6455,5.6465,5.6608,5.6482,5.6488,5.6492,5.6795,5.6801,5.6805,0,0,0,0,0,0,5.6239,5.6256,5.6393,5.6327,5.6343,5.6349,5.6391,5.6389,5.6413,5.6426,5.6427,5.6401,5.6443,5.6456,5.6547,5.6609,5.6491,5.6497,5.679,5.6797,5.6803,5.6893,0,0,0,0,0,0,5.6234,5.6255,5.63,5.6328,5.6347,5.6474,5.6394,5.6393,5.6425,5.6417,5.6449,5.645,5.6441,5.6538,5.6554,5.6616,5.6502,5.6785,5.6793,5.6801,5.6885,5.6902,5.6917,0,0,0,0,0,5.6227,5.6322,5.6303,5.632,5.6403,5.6478,5.6488,5.6476,5.643,5.6476,5.6484,5.6449,5.66,5.6548,5.6565,5.663,5.6781,5.6791,5.68,5.6878,5.6899,5.6917,0,0,0,0,0,0,5.63,5.6325,5.6304,5.6411,5.6443,5.6467,5.6523,5.6498,5.6543,5.6534,5.6516,5.6524,5.6621,5.6635,5.6576,5.6748,5.6683,5.6697,5.6736,5.6756,5.6772,5.6766,5.6507,0,0,0,0,0,5.6329,5.6387,5.6406,5.6498,5.6515,5.6517,5.6549,5.6537,5.6569,5.6582,5.6597,5.663,5.6685,5.6721,5.6772,5.6887,5.6893,5.694,5.6956,5.6969,5.6981,5.7045,5.7066,5.6838,5.6838,5.6837,0,0,5.6388,5.6409,5.6447,5.6513,5.6537,5.6598,5.6529,5.6596,5.6642,5.6592,5.668,5.6693,5.6728,5.6833,5.6879,5.6847,5.7046,5.6982,5.6992,5.6997,5.7057,5.7079,5.7098,5.6844,5.6843,5.6842,0,0,5.6527,5.6549,5.6629,5.6654,5.6691,5.6692,5.6711,5.674,5.6747,5.6835,5.68,5.6854,5.6948,5.6975,5.7002,5.7155,5.7125,5.7172,5.7255,5.7317,5.7335,5.7351,5.7407,5.7427,5.7184,5.7184,5.7184,0,5.6596,5.6687,5.6673,5.6744,5.6775,5.6734,5.6816,5.6841,5.6892,5.6915,5.6878,5.6997,5.7018,5.7129,5.7166,5.7189,5.7211,5.7167,5.7334,5.735,5.7364,5.7417,5.7438,5.7189,5.7189,5.7188,5.7188,0,5.6771,5.6835,5.6895,5.6947,5.6985,5.706,5.7058,5.7098,5.7084,5.7089,5.718,5.7204,5.726,5.7285,5.7271,5.7395,5.7374,5.7336,5.727,5.7392,5.7441,5.7461,5.7197,5.7195,5.7194,5.7192,0,0,5.6956,5.7001,5.7024,5.7047,5.7086,5.7135,5.721,5.7266,5.7301,5.7338,5.7401,5.7483,5.7449,5.7479,5.7468,5.7522,5.7643,5.7477,5.7478,5.7508,5.7783,5.7812,5.7835,5.7624,5.7628,5.7631,5.778,0,5.7098,5.7228,5.7218,5.7341,5.7401,5.7364,5.743,5.7461,5.7468,5.752,5.7528,5.7587,5.7537,5.7555,5.7607,5.7618,5.7698,5.7607,5.7683,5.7686,5.7675,5.7861,5.7891,5.8031,5.7799,5.7803,5.7805,0,5.728,5.7325,5.7454,5.7486,5.7511,5.757,5.7621,5.7671,5.7706,5.7708,5.7743,5.7723,5.7799,5.7732,5.7837,5.7775,5.7806,5.7816,5.7821,5.7828,5.7752,5.7873,5.8075,5.8096,5.7835,5.7833,5.783,0,5.7404,5.7497,5.7587,5.7608,5.7647,5.7689,5.7708,5.7739,5.7774,5.7819,5.7841,5.7894,5.7923,5.7965,5.7961,5.7912,5.8069,5.8001,5.8073,5.8073,5.8107,5.8105,5.8317,5.8127,5.8126,5.8126,5.8126,0,5.7563,5.7644,5.7643,5.7698,5.7788,5.7777,5.7866,5.7879,5.7908,5.7966,5.7937,5.7992,5.7983,5.8038,5.8035,5.8124,5.8137,5.8141,5.8139,5.8143,5.8143,5.8163,5.8153,5.8132,5.813,5.8129,5.8128,0,5.7716,5.7719,5.7814,5.7844,5.7853,5.7918,5.7944,5.7997,5.8002,5.8076,5.8092,5.8102,5.8165,5.8165,5.8237,5.8236,5.8344,5.8331,5.8333,5.833,5.8402,5.8396,5.8635,5.8666,5.8455,5.8457,5.8459,0,5.7818,5.7879,5.7916,5.7953,5.7974,5.8034,5.8069,5.8061,5.81,5.8146,5.8194,5.8255,5.8303,5.8407,5.842,5.8476,5.8464,5.8544,5.8472,5.8475,5.8466,5.8463,5.8469,5.8558,5.856,5.8562,5.8564,0,5.7998,5.7997,5.8049,5.8104,5.8148,5.8189,5.8228,5.826,5.8257,5.8301,5.8367,5.8404,5.8479,5.8541,5.8595,5.8614,5.8589,5.8587,5.8606,5.8611,5.861,5.8613,5.8371,5.8581,5.8579,5.8578,5.8577,5.8576,5.8129,5.8183,5.8217,5.8278,5.8306,5.8344,5.8395,5.8408,5.8462,5.8523,5.8515,5.8588,5.8624,5.8694,5.8718,5.8775,5.8747,5.8776,5.8783,5.879,5.8799,5.8601,5.8785,5.8785,5.8784,5.8784,5.8783,0,5.8309,5.833,5.8385,5.8441,5.8489,5.8462,5.8504,5.8546,5.8611,5.8646,5.8695,5.8771,5.8831,5.885,5.8908,5.895,5.8941,5.8966,5.8963,5.8968,5.882,5.8797,5.8973,5.8973,5.8973,5.8973,5.8973,5.8973,5.8408,5.8497,5.8501,5.8605,5.8625,5.8697,5.8723,5.8758,5.8786,5.8873,5.8923,5.8935,5.8964,5.9025,5.9079,5.9083,5.9106,5.9136,5.9136,5.8997,5.8978,5.896,5.8939,5.9141,5.9142,5.9279,5.9281,5.9282]},{"header":{"parameterUnit":"m.s-1","parameterCategory":1,"la1":30.2991,"la2":30.254,"lo1":-89.0895,"lo2":-89.0444,"dy":0.0017,"dx":0.0017,"nx":28,"ny":28,"refTime":"2024-04-01T21:00:00:Z","depth":0,"parameterNumber":3,"parameterNumberName":"V-component_of_WINDS"},"data":[0,0,0,0,0,0,0,0,0,0,0,0,0,0,0,0,0,0,0,0,0,0,0,0,0,0,0,0,0,0,0,0,0,0,0,0,0,0,0,0,0,0,0,0,0,0,0,0,0,0,0,0,0,0,0,0,0,0,-5.8976,-5.8978,0,-5.913,-5.9132,-5.9133,-5.9131,-5.9129,-5.9127,-5.9125,-5.9279,-5.9285,-5.9291,0,0,0,0,0,0,0,0,0,0,0,0,0,-5.8679,-5.8684,-5.8976,-5.8978,-5.898,-5.913,-5.9132,-5.9134,-5.9131,-5.9129,-5.9126,-5.9124,-5.9277,-5.9284,-5.9292,0,0,0,0,0,0,0,0,0,0,0,0,0,-5.8818,-5.8686,-5.8976,-5.8997,-5.9,-5.9129,-5.9132,-5.9134,-5.9132,-5.9129,-5.9125,-5.9123,-5.9275,-5.9284,-5.9293,-5.941,0,0,-5.932,-5.9324,0,0,0,0,0,0,0,0,-5.881,-5.8829,-5.8992,-5.8995,-5.8999,-5.9108,-5.9084,-5.9227,-5.9132,-5.9082,-5.9125,-5.9121,-5.9225,-5.9238,-5.9273,-5.9418,-5.9424,-5.9321,-5.9327,-5.9331,-5.9333,0,0,0,0,0,0,0,-5.88,-5.8822,-5.9037,-5.8994,-5.8999,-5.8998,-5.9014,-5.9111,-5.9168,-5.9086,-5.9086,-5.9104,-5.9226,-5.9264,-5.9277,-5.9427,-5.9321,-5.9329,-5.9335,-5.9338,-5.9678,-5.9681,0,0,0,0,0,0,-5.8787,-5.8814,-5.9032,-5.9041,-5.8895,-5.9006,-5.9024,-5.9076,-5.9167,-5.9178,-5.9107,-5.9104,-5.9251,-5.9266,-5.9282,-5.9427,-5.933,-5.9339,-5.9344,-5.9674,-5.9679,-5.9682,0,0,0,0,0,0,-5.878,-5.8806,-5.9026,-5.8928,-5.8956,-5.9014,-5.9073,-5.9081,-5.9119,-5.9183,-5.9193,-5.9135,-5.9249,-5.9269,-5.9379,-5.9433,-5.9343,-5.9351,-5.967,-5.9676,-5.9681,-5.9718,0,0,0,0,0,0,-5.8772,-5.8804,-5.8849,-5.8929,-5.8961,-5.9121,-5.9076,-5.9086,-5.9135,-5.9133,-5.9213,-5.9223,-5.9248,-5.9366,-5.9388,-5.9444,-5.9358,-5.9665,-5.9673,-5.9679,-5.9712,-5.9724,-5.9734,0,0,0,0,0,-5.8761,-5.8852,-5.8851,-5.8878,-5.9019,-5.9124,-5.9142,-5.9169,-5.9139,-5.9186,-5.9227,-5.9221,-5.9424,-5.9377,-5.9402,-5.9461,-5.9662,-5.9671,-5.9678,-5.9707,-5.9721,-5.9734,0,0,0,0,0,0,-5.8775,-5.8863,-5.8863,-5.8983,-5.9046,-5.9123,-5.9182,-5.9183,-5.9255,-5.925,-5.928,-5.9298,-5.9408,-5.9446,-5.9392,-5.9581,-5.9539,-5.9553,-5.9552,-5.9566,-5.9577,-5.9565,-5.9366,0,0,0,0,0,-5.8793,-5.8871,-5.8943,-5.9042,-5.9074,-5.9123,-5.9169,-5.9185,-5.9251,-5.9277,-5.9327,-5.9391,-5.9469,-5.952,-5.9595,-5.9718,-5.9736,-5.9771,-5.9782,-5.979,-5.9802,-5.9871,-5.9888,-5.9709,-5.9709,-5.9709,0,0,-5.8829,-5.8886,-5.8933,-5.9046,-5.9097,-5.9177,-5.9145,-5.923,-5.929,-5.929,-5.9397,-5.9436,-5.951,-5.9627,-5.9681,-5.9662,-5.9855,-5.9801,-5.9807,-5.9814,-5.9881,-5.9898,-5.9913,-5.9715,-5.9714,-5.9713,0,0,-5.8935,-5.8987,-5.9075,-5.9128,-5.9206,-5.9238,-5.926,-5.9338,-5.9364,-5.9472,-5.9475,-5.9546,-5.968,-5.9733,-5.9777,-5.9908,-5.9905,-5.9932,-5.9988,-6.0055,-6.0069,-6.0082,-6.0129,-6.0146,-5.9943,-5.9943,-5.9943,0,-5.897,-5.9091,-5.912,-5.9208,-5.9258,-5.9263,-5.9354,-5.9403,-5.9501,-5.9536,-5.9513,-5.9683,-5.9733,-5.9863,-5.9895,-5.9931,-5.9957,-5.9922,-6.0065,-6.0078,-6.009,-6.0136,-6.0153,-5.9945,-5.9945,-5.9945,-5.9945,0,-5.913,-5.9215,-5.9277,-5.9374,-5.9431,-5.9519,-5.9562,-5.9616,-5.9628,-5.9663,-5.9775,-5.9835,-5.9924,-5.9956,-5.9968,-6.0089,-6.0075,-6.0059,-6.0017,-6.0109,-6.0153,-6.017,-5.9949,-5.9948,-5.9948,-5.9947,0,0,-5.9248,-5.9362,-5.9384,-5.9429,-5.9517,-5.9583,-5.9672,-5.9761,-5.9807,-5.9876,-5.9951,-6.0066,-6.0053,-6.0103,-6.0121,-6.018,-6.0281,-6.0156,-6.0159,-6.0178,-6.042,-6.0431,-6.0451,-6.028,-6.0283,-6.0286,-6.0414,0,-5.9364,-5.9523,-5.9553,-5.9692,-5.9771,-5.9779,-5.9857,-5.9919,-5.9955,-6.0027,-6.0066,-6.0148,-6.0123,-6.0154,-6.0213,-6.0256,-6.033,-6.0247,-6.0351,-6.0354,-6.0332,-6.0474,-6.0486,-6.0603,-6.0431,-6.0434,-6.0436,0,-5.952,-5.9595,-5.9741,-5.9821,-5.9855,-5.9925,-6.001,-6.0078,-6.015,-6.0172,-6.023,-6.0242,-6.0336,-6.0291,-6.042,-6.0364,-6.0408,-6.0436,-6.0441,-6.0452,-6.04,-6.0488,-6.0641,-6.0659,-6.0462,-6.046,-6.0458,0,-5.9592,-5.9729,-5.9835,-5.9873,-5.9968,-6.0017,-6.0059,-6.0128,-6.018,-6.0254,-6.0289,-6.0372,-6.0418,-6.0482,-6.0517,-6.0481,-6.0644,-6.0602,-6.0665,-6.0664,-6.0698,-6.0695,-6.0861,-6.0727,-6.0727,-6.0727,-6.0726,0,-5.9718,-5.9808,-5.9869,-5.9934,-6.0035,-6.007,-6.0169,-6.021,-6.0272,-6.0345,-6.0357,-6.0426,-6.0467,-6.0542,-6.057,-6.0674,-6.0694,-6.0714,-6.0721,-6.0713,-6.0711,-6.0742,-6.0735,-6.0731,-6.073,-6.0729,-6.0728,0,-5.9815,-5.9859,-5.9976,-6.0058,-6.0081,-6.0151,-6.0222,-6.0285,-6.0322,-6.0415,-6.0439,-6.0497,-6.0586,-6.0627,-6.0736,-6.0755,-6.0873,-6.0874,-6.0849,-6.0852,-6.0913,-6.0907,-6.1104,-6.1132,-6.098,-6.0981,-6.0982,0,-5.9893,-5.9962,-6.0052,-6.0103,-6.0147,-6.0228,-6.0282,-6.032,-6.0375,-6.0464,-6.0517,-6.0607,-6.0681,-6.0823,-6.0874,-6.0959,-6.0961,-6.1025,-6.0974,-6.0965,-6.0963,-6.0958,-6.0966,-6.1034,-6.1035,-6.1036,-6.1037,0,-6.0026,-6.0045,-6.0123,-6.0209,-6.0273,-6.0343,-6.0411,-6.0451,-6.05,-6.0562,-6.0654,-6.0711,-6.0825,-6.0914,-6.1003,-6.1046,-6.105,-6.1054,-6.1073,-6.1066,-6.1049,-6.106,-6.0875,-6.1048,-6.1047,-6.1046,-6.1046,-6.1045,-6.0116,-6.0179,-6.0253,-6.034,-6.0395,-6.0459,-6.0524,-6.057,-6.0648,-6.0744,-6.0761,-6.0859,-6.0931,-6.1051,-6.1098,-6.1175,-6.116,-6.1187,-6.1195,-6.1201,-6.1205,-6.1037,-6.1191,-6.1191,-6.1191,-6.119,-6.119,0,-6.025,-6.0299,-6.0379,-6.0475,-6.0543,-6.0543,-6.0619,-6.0676,-6.0763,-6.083,-6.0904,-6.101,-6.1098,-6.1157,-6.1246,-6.1297,-6.1301,-6.1319,-6.1315,-6.1325,-6.1213,-6.1187,-6.1314,-6.1314,-6.1314,-6.1314,-6.1314,-6.1314,-6.0328,-6.0435,-6.0464,-6.0599,-6.0647,-6.0744,-6.0788,-6.0847,-6.0902,-6.1021,-6.1094,-6.1133,-6.1197,-6.1292,-6.1372,-6.1387,-6.142,-6.1438,-6.1453,-6.1346,-6.1333,-6.1321,-6.1297,-6.1445,-6.1445,-6.1559,-6.156,-6.1561]}]]